Погода в Ореанде

Россия / Республика Крым     44°27′26″N   34°08′24″E
темп.,
°C
ветер,
м/с
пор.,
м/с
влажн.,
%
обл.,
%
осадки,
мм/ч
давл.,
гПа
погр.,
м
24 июля, сб
сб2400:00+21сз43620 0.0 101396
03:00+20ссз54590 0.0 1013103
06:00+20ссз44590 0.0 1013123
09:00+23всв12440 0.0 1013661
12:00+24юв43460 0.0 1013989
15:00+23ю334716 0.0 1013698
18:00+23зюз22530 0.0 1014328
21:00+22ссз33620 0.0 101569
25 июля, вс
вс2500:00+22ссз44500 0.0 101595
03:00+21с45540 0.0 1015174
06:00+22с56590 0.0 1015185
09:00+25ссв45500 0.0 1015311
12:00+26в45570 0.0 1016697
15:00+26в46602 0.0 1015688
18:00+26всв45561 0.0 1015475
21:00+24с566598 0.0 101668
26 июля, пн
пн2600:00+24ссз565462 0.0 101656
03:00+24ссз665485 0.0 101562
06:00+23с56668 0.0 101679
09:00+26св465620 0.0 1016335
12:00+27св565430 0.0 1016629
15:00+28св46532 0.0 1016612
18:00+27ссв35560 0.0 1016486
21:00+24сз55597 0.0 101642
27 июля, вт
вт2700:00+24ссз67620 0.0 101671
03:00+23ссз66723 0.0 101681
06:00+23ссз55700 0.0 101653
09:00+26зсз126022 0.0 1017192
12:00+26ююз235915 0.0 1017580
15:00+27юз465958 0.0 1017401
18:00+26в126824 0.0 1017112
21:00+24с55640 0.0 101843
28 июля, ср
ср2800:00+24с55530 0.0 101836
03:00+23ссв56590 0.0 101894
06:00+23ссв44630 0.0 101870
09:00+25всв34510 0.0 1018264
12:00+25в55570 0.0 1018624
15:00+25всв455315 0.0 1017584
18:00+26ссв115622 0.0 1017419
21:00+25сз325710 0.0 101716